Regional Weather Roundup
Issued by NWS

Home | Current Version | Previous Version | Graphics & Text | Print | Product List | Glossary On
Versions: 1 2 3 4 5 6 7 8 9 10 11 12 13 14 15 16 17 18 19 20 21 22 23 24 25 26 27 28 29 30 31 32 33 34 35 36 37 38 39 40 41 42 43 44 45 46 47 48 49 50
000
ASUS43 KMPX 292201
RWRMN
WEATHER ROUNDUP FOR MINNESOTA
NATIONAL WEATHER SERVICE TWIN CITIES/CHANHASSEN MN
500 PM CDT MON SEP 29 2014


NOTE: "FAIR" INDICATES FEW OR NO CLOUDS BELOW 12,000 FEET WITH NO
SIGNIFICANT WEATHER AND/OR OBSTRUCTIONS TO VISIBILITY. N/A MEANS
CURRENT SKY AND/OR WEATHER CONDITIONS ARE NOT AVAILABLE.

MNZ060>063-068>070-292300-
   Twin Cities Metro

CITY           SKY/WX    TMP DP  RH WIND       PRES   REMARKS
TWIN CITIES    PTSUNNY   58  46  64 N12       30.11S
ST PAUL        CLOUDY    57  46  66 N13       30.12S
CRYSTAL        PTSUNNY   59  45  59 NE9       30.11S
BLAINE         PTSUNNY   57  46  67 NE10      30.12S
LAKEVILLE      CLOUDY    55  46  71 N10       30.10S
EDEN PRAIRIE   CLOUDY    57  47  69 N8        30.10S
SOUTH ST PAUL  CLOUDY    58  46  64 N12G20    30.11S
LAKE ELMO      CLOUDY    55  46  71 NE8       30.12S
$$
MNZ001>005-007-008-013>017-022>024-027-028-292300-
   Northwest Minnesota

CITY           SKY/WX    TMP DP  RH WIND       PRES   REMARKS
BEMIDJI        SUNNY     56  45  66 E8        30.15F
HALLOCK        CLOUDY    54  46  76 CALM      30.16F
ROSEAU         CLOUDY    55  46  71 E8        30.17F
WARROAD        MOSUNNY   52  46  82 NE7       30.19S
THIEF RVR FALL MOSUNNY   57  45  62 E12       30.15S
CROOKSTON      SUNNY     61  45  55 E9        30.14F
FOSSTON        SUNNY     63  54  72 SE6       30.14F
DETROIT LAKES  SUNNY     61  46  59 SE9       30.13F
PARK RAPIDS    SUNNY     57  44  62 E9        30.14F
MAHNOMEN       FAIR      61  44  54 E7        30.12F
$$
MNZ006-009>011-018-025>026-292300-
   North Central Minnesota

CITY           SKY/WX    TMP DP  RH WIND       PRES   REMARKS
BAUDETTE       MOSUNNY   55  43  63 SE8       30.18F
FLAG ISLAND    PTSUNNY   52  43  71 SE5       30.18F
INTL FALLS     CLOUDY    47  40  76 SE3       30.21F
WASKISH        SUNNY     54  45  71 E5        30.17F
BIG FORK       SUNNY     54  43  66 CALM      30.18F
LONGVILLE      PTSUNNY   55  45  67 SE5       30.16S
GRAND RAPIDS   CLOUDY    52  39  62 E3        30.18S
CRANE LAKE     CLOUDY    45  39  81 CALM      30.24S
ORR            CLOUDY    46  39  76 CALM      30.19S
COOK           CLOUDY    46  41  81 CALM      30.21S
WALKER         CLOUDY    53  44  72 E5        30.16S
$$
MNZ012-019>021-037-292300-
   Northeast Minnesota

CITY           SKY/WX    TMP DP  RH WIND       PRES   REMARKS
DULUTH         CLOUDY    44  39  82 E10       30.19F
ELY            CLOUDY    45  37  76 NE5       30.20F
HIBBING        CLOUDY    52  41  66 NE6       30.18F
EVELETH        PTSUNNY   50  41  71 NE5       30.20S
DULUTH HARBOR  CLOUDY    46  43  87 E15       30.22F
TWO HARBORS    CLOUDY    45  37  76 E8        30.19F
SILVER BAY     MOSUNNY   43  43 100 NE3       30.20S
GRAND MARAIS     N/A     48  42  80 CALM      30.22S
G MARAIS ARPRT CLOUDY    41  36  81 N5        30.21S
$$
MNZ029>031-032-039>041-046>048-054>057-064-292300-
   West Central Minnesota

CITY           SKY/WX    TMP DP  RH WIND       PRES   REMARKS
FERGUS FALLS   SUNNY     59  45  58 SE13      30.11F
WHEATON        SUNNY     57  48  72 SE12      30.12S
MORRIS         SUNNY     57  48  72 E10       30.10F
ALEXANDRIA     CLOUDY    54  46  74 E12       30.14S
ELBOW LAKE     FAIR      56  47  72 SE12      30.11F
WADENA         SUNNY     54  45  71 E12       30.13F
GLENWOOD       PTSUNNY   55  46  71 NE9       30.13S
APPLETON       CLOUDY    61  48  63 E8        30.09F
BENSON         CLOUDY    57  48  72 E8        30.11S
ORTONVILLE     CLOUDY    59  48  67 E9        30.09F
MADISON        MOSUNNY   61  52  72 E10       30.09S
WILLMAR        FAIR      59  46  63 E12       30.12S
$$
MNZ033>034-036-042>043-049>051-058-059-292300-
   Central Minnesota

CITY           SKY/WX    TMP DP  RH WIND       PRES   REMARKS
ST CLOUD       PTSUNNY   58  45  62 NE9       30.13F
SAUK CENTRE    CLOUDY    54  47  76 E12       30.13S
PAYNESVILLE    CLOUDY    54  46  75 N8        30.12S
AITKIN         CLOUDY    55  45  67 E3        30.16R
PINE RIVER     MOSUNNY   54  45  71 E10       30.19F
BRAINERD       CLOUDY    51  43  74 NE9       30.17F
STAPLES        CLOUDY    54  43  66 E5        30.15S
LONG PRAIRIE   CLOUDY    52  45  76 NE7       30.15S
LITTLE FALLS   PTSUNNY   54  45  71 N5        30.14F
LITCHFIELD     CLOUDY    57  50  77 NE10G16   30.12S HAZE
BUFFALO        MOSUNNY   58  45  62 NE13      30.13S
MAPLE LAKE     PTSUNNY   57  48  71 NE8G16    30.13F
$$
MNZ037-044-045-052-053-292300-
   East Central Minnesota

CITY           SKY/WX    TMP DP  RH WIND       PRES   REMARKS
MORA           PTSUNNY   50  41  71 NE7       30.17F
CAMBRIDGE      MOSUNNY   57  45  62 NE8       30.12F
RUSH CITY      PTSUNNY   54  44  69 NE8       30.15S
MOOSE LAKE     CLOUDY    46  37  71 E7        30.17F
HINCKLEY       CLOUDY    50  43  76 NE14      30.16F
CLOQUET        CLOUDY    45  39  81 E8        30.19F
MCGREGOR       CLOUDY    50  45  81 E9        30.18S
$$
MNZ071>073-080-081-089-090-097-098-292300-
   Southwest Minnesota

CITY           SKY/WX    TMP DP  RH WIND       PRES   REMARKS
MONTEVIDEO     CLOUDY    61  52  72 E10       30.10F
GRANITE FALLS  MOSUNNY   60  50  68 NE10      30.10F
CANBY          MOSUNNY   61  52  71 NE8       30.08F
MARSHALL       MOSUNNY   64  48  55 E14       30.06S
REDWOOD FALLS  MOSUNNY   62  49  62 NE8       30.08F
OLIVIA         PTSUNNY   59  48  67 NE9       30.09S
PIPESTONE      MOSUNNY   64  54  68 E7        30.04F
WINDOM         SUNNY     66  54  63 NE9       30.06S
WORTHINGTON    MOSUNNY   64  54  68 E12       30.06S
JACKSON        SUNNY     66  54  63 NE10      30.06S
TRACY          MOSUNNY   65  53  63 NE10      30.07S
SLAYTON        CLOUDY    65  52  62 NE10      30.06F
$$
MNZ065>067-074>077-082>085-091>093-292300-
   South Central Minnesota

CITY           SKY/WX    TMP DP  RH WIND       PRES   REMARKS
MANKATO        MOSUNNY   61  46  59 NE12G17   30.08S
NEW ULM        MOSUNNY   61  50  67 NE8       30.08F
ST JAMES       MOSUNNY   66  52  59 NE7       30.07F
FAIRMONT       MOSUNNY   66  52  59 NE7       30.05F
GLENCOE        CLOUDY    58  46  65 NE8       30.10S
FARIBAULT      PTSUNNY   63  45  51 N7        30.09S
OWATONNA       SUNNY     61  48  63 NE10      30.08S
WASECA         SUNNY     59  45  58 N9        30.09S
ALBERT LEA     SUNNY     64  52  63 NE9       30.06R
$$
MNZ078>079-086>088-094>096-292300-
   Southeast Minnesota

CITY           SKY/WX    TMP DP  RH WIND       PRES   REMARKS
ROCHESTER      SUNNY     58  49  72 NE13      30.08F
RED WING       PTSUNNY   61  46  59 N6        30.08S
STANTON        CLOUDY    59  47  64 NE9       30.08S
DODGE CENTER   MOSUNNY   57  50  77 NE10      30.08S
WINONA         CLOUDY    55  48  76 NE7       30.08F
AUSTIN         SUNNY     63  50  63 NE12      30.06R
PRESTON        MOSUNNY   56  49  77 NE12G17   30.07S
$$
ABBREVIATIONS USED IN REMARKS
   TC - TEMPERATURES IN CELSIUS
  WCI - WIND CHILL INDEX
   HX - HEAT INDEX
  VSB - VISIBILITY
$$


USA.gov is the U.S. government's official web portal to all federal, state and local government web resources and services.